TimeCST,TemperatureF,Dew PointF,Humidity,Sea Level PressureIn,VisibilityMPH,Wind Direction,Wind SpeedMPH,Gust SpeedMPH,PrecipitationIn,Events,Conditions,WindDirDegrees,DateUTC
12:53 AM,55.0,48.0,77,30.16,10.0,Calm,Calm,-,N/A,,Overcast,0,2012-12-01 06:53:00
1:53 AM,51.1,46.9,86,30.17,9.0,Calm,Calm,-,N/A,,Overcast,0,2012-12-01 07:53:00
2:53 AM,54.0,48.0,80,30.16,10.0,South,3.5,-,N/A,,Overcast,170,2012-12-01 08:53:00
3:53 AM,55.9,46.9,72,30.16,10.0,South,5.8,-,N/A,,Overcast,190,2012-12-01 09:53:00
4:53 AM,54.0,46.9,77,30.15,10.0,SSW,4.6,-,N/A,,Overcast,200,2012-12-01 10:53:00
6:53 AM,54.0,46.0,75,30.17,10.0,SSE,4.6,-,N/A,,Overcast,160,2012-12-01 12:53:00
7:53 AM,55.9,46.0,69,30.17,10.0,South,6.9,-,N/A,,Overcast,170,2012-12-01 13:53:00
8:53 AM,57.0,46.9,69,30.17,10.0,South,3.5,-,N/A,,Overcast,180,2012-12-01 14:53:00
9:53 AM,60.1,48.0,64,30.17,10.0,South,8.1,-,N/A,,Mostly Cloudy,180,2012-12-01 15:53:00
10:53 AM,63.0,48.9,60,30.15,10.0,South,11.5,-,N/A,,Overcast,180,2012-12-01 16:53:00
11:53 AM,64.0,50.0,60,30.12,10.0,South,10.4,-,N/A,,Mostly Cloudy,180,2012-12-01 17:53:00
12:53 PM,64.9,51.1,61,30.09,10.0,South,12.7,-,N/A,,Mostly Cloudy,180,2012-12-01 18:53:00
1:53 PM,66.0,52.0,60,30.06,10.0,South,17.3,-,N/A,,Mostly Cloudy,180,2012-12-01 19:53:00
2:53 PM,66.9,52.0,59,30.06,10.0,South,9.2,-,N/A,,Overcast,170,2012-12-01 20:53:00
3:53 PM,66.0,52.0,60,30.04,10.0,South,12.7,21.9,N/A,,Mostly Cloudy,170,2012-12-01 21:53:00
4:53 PM,64.9,52.0,63,30.04,10.0,South,10.4,-,N/A,,Partly Cloudy,180,2012-12-01 22:53:00
5:53 PM,64.0,51.1,63,30.04,10.0,South,9.2,-,N/A,,Scattered Clouds,170,2012-12-01 23:53:00
6:53 PM,63.0,51.1,65,30.04,10.0,South,10.4,-,N/A,,Clear,180,2012-12-02 00:53:00
7:53 PM,62.1,51.1,67,30.03,10.0,South,9.2,-,N/A,,Scattered Clouds,170,2012-12-02 01:53:00
8:53 PM,62.1,51.1,67,30.04,10.0,South,9.2,-,N/A,,Overcast,180,2012-12-02 02:53:00
9:53 PM,63.0,50.0,63,30.05,10.0,South,11.5,-,N/A,,Overcast,190,2012-12-02 03:53:00
10:53 PM,62.1,50.0,65,30.08,10.0,SSW,8.1,-,N/A,,Overcast,210,2012-12-02 04:53:00
11:53 PM,63.0,48.9,60,30.08,10.0,South,10.4,-,N/A,,Overcast,180,2012-12-02 05:53:00